This demonstration page uses our WeatherBlox Daily Observations layout. Learn more.

Left ArrowRight Arrow

39.92423, -83.80882

Hourly Observations for January 24, 2015

Temp ( °F °C ) Dew Point ( °F °C ) Humidity (%) Winds ( mph kmh ) Pressure ( in mb ) Visibility ( mi km ) Precip ( " mm )
12:56 am 00:56 Clear with Mist and Fog 28 -2.2 26 -3.3 92 92 S 5 7 29.86 1011 5 8 0.00 0.00
1:56 am 01:56 Clear with Mist and Fog 27 -2.7 25 -3.8 92 92 SW 7 11 29.84 1010 5 8 0.00 0.00
2:42 am 02:42 Mostly Cloudy with Mist and Fog 27 -3 25 -4 93 93 SW 8 13 29.85 1011 5 8 0.00 0.00
2:49 am 02:49 Mostly Cloudy with Mist and Fog 27 -3 25 -4 93 93 WSW 8 13 29.85 1011 5 8 0.00 0.00
2:56 am 02:56 Mostly Cloudy with Mist and Fog 27 -2.7 25 -3.8 92 92 W 9 15 29.83 1010 5 8 0.00 0.00
3:56 am 03:56 Cloudy with Mist and Fog 27 -2.7 24 -4.4 88 88 W 12 19 29.80 1009 5 8 0.00 0.00
4:56 am 04:56 Cloudy with Mist and Fog 26 -3.3 24 -4.4 92 92 WNW 13 20 29.79 1009 6 10 0.00 0.00
5:44 am 05:44 Cloudy 27 -3 23 -5 86 86 WNW 10 17 29.83 1010 7 11 0.00 0.00
5:56 am 05:56 Cloudy 26 -3.3 23 -5 88 88 NW 13 20 29.79 1009 7 11 0.00 0.00
6:56 am 06:56 Cloudy 26 -3.3 23 -5 88 88 SSW 7 11 29.80 1009 7 11 0.00 0.00
7:39 am 07:39 Partly Cloudy 27 -3 23 -5 86 86 SSW 8 13 29.83 1010 7 11 0.00 0.00
7:56 am 07:56 Sunny 26 -3.3 23 -5 88 88 SSW 6 9 29.79 1009 7 11 0.00 0.00
8:56 am 08:56 Mostly Cloudy with Mist and Fog 27 -2.7 24 -4.4 88 88 SW 10 17 29.78 1008 5 8 0.00 0.00
9:56 am 09:56 Mostly Cloudy with Mist and Fog 28 -2.2 24 -4.4 85 85 SW 12 19 29.77 1008 5 8 0.00 0.00
10:56 am 10:56 Mostly Cloudy with Haze 31 -0.5 26 -3.3 82 82 WSW 12 19 29.77 1008 6 10 0.00 0.00
11:56 am 11:56 Hazy 35 1.6 27 -2.7 73 73 SW 13 20 29.74 1007 6 10 0.00 0.00
12:56 pm 12:56 Hazy 37 2.7 28 -2.2 70 70 SW 13 20 29.70 1006 6 10 0.00 0.00
1:32 pm 13:32 Mostly Cloudy with Haze 37 3 28 -2 70 70 WSW 13 20 29.71 1006 6 10 0.00 0.00
1:56 pm 13:56 Cloudy with Haze 37 2.7 28 -2.2 70 70 WSW 14 22 29.68 1005 6 10 0.00 0.00
2:56 pm 14:56 Cloudy with Haze 36 2.2 28 -2.2 73 73 W 15 24 29.68 1005 6 10 0.00 0.00
3:56 pm 15:56 Cloudy with Haze 34 1.1 29 -1.6 82 82 W 17 28 29.70 1006 5 8 0.00 0.00
4:56 pm 16:56 Cloudy with Haze 34 1.1 29 -1.6 82 82 WSW 10 17 29.71 1006 5 8 0.00 0.00
5:14 pm 17:14 Mostly Cloudy with Mist and Fog 34 1 30 -1 87 87 WSW 10 17 29.71 1006 5 8 0.00 0.00
5:56 pm 17:56 Mostly Cloudy with Mist and Fog 33 0.5 29 -1.6 86 86 SW 9 15 29.74 1007 5 8 0.00 0.00
6:56 pm 18:56 Cloudy with Mist and Fog 33 0.5 29 -1.6 86 86 SW 9 15 29.79 1009 6 10 0.00 0.00
7:56 pm 19:56 Cloudy with Mist and Fog 34 1.1 30 -1.1 85 85 SW 9 15 29.79 1009 6 10 0.00 0.00
8:56 pm 20:56 Cloudy with Mist and Fog 33 0.5 30 -1.1 89 89 SW 9 15 29.81 1009 6 10 0.00 0.00
9:56 pm 21:56 Cloudy 34 1.1 30 -1.1 85 85 SSW 12 19 29.79 1009 7 11 0.00 0.00
10:36 pm 22:36 Cloudy 34 1 28 -2 81 81 SSW 9 15 29.80 1009 7 11 0.00 0.00
10:56 pm 22:56 Cloudy 34 1.1 30 -1.1 85 85 SSW 12 19 29.78 1009 7 11 0.00 0.00
11:56 pm 23:56 Cloudy 35 1.6 30 -1.1 82 82 SSW 12 19 29.78 1008 7 11 0.00 0.00

Powered by AerisWeather